Flag for Germany Weather past 2 weeks in Oelde, North Rhine-Westphalia, Germany

Now
52 °F

Strong thunderstorms. Partly sunny.


Feels Like: 48 °F
Forecast: 46 / 66 °F
Wind: 10 mph from Southeast

Location: Paderborn / Lippstadt


UV Index: 3 (Moderate)

Visibility: N/A


Pressure: 29.68 "Hg

Humidity: 77%

Dew point: 45 °F

Location of OeldeLocation

Historic Weather in Oelde

°F

Oelde temperature yesterday

Maximum temperature yesterday: 64 °F (at 3:20 PM)
Minimum temperature yesterday: 45 °F (at 6:50 AM)
Average temperature yesterday: 57 °F

Past Weeks' High & Low Weather Summary

 TemperatureHumidityPressure
High68 °F (Apr 7, 4:50 PM)100% (Apr 9, 9:50 PM)30.45 "Hg (Apr 9, 9:50 PM)
Low28 °F (Apr 16, 4:50 AM)29% (Apr 17, 5:50 PM)29.65 "Hg (Apr 21, 3:20 PM)
Average49 °F69%30.05 "Hg
* Reported Apr 6 5:20 PM — Apr 21 5:20 PM, Oelde, Weather by CustomWeather, © 2014

Note: Actual official high and low records may vary slightly from our data, if they occured in-between our weather recording intervals... More about our weather records

Advertising

Historic Weather Conditions — Data for Previous 24 hours

 ConditionsComfort  
Time TempWeatherWind HumidityBarometerVisibility
5:20 PM
Apr 21
61 °FThunderstorms. Scattered clouds.8 mph55%29.65 "HgN/A
5:00 PM61 °FThundershowers. Scattered clouds.9 mph52%29.65 "HgN/A
4:20 PM61 °FPassing clouds.12 mph52%29.65 "HgN/A
3:50 PM63 °FPassing clouds.9 mph45%29.65 "HgN/A
3:20 PM63 °FPassing clouds.10 mph45%29.65 "HgN/A
2:50 PM61 °FSunny.6 mph45%29.68 "Hg10 mi
2:20 PM59 °FPassing clouds.6 mph51%29.68 "HgN/A
1:50 PM57 °FPassing clouds.10 mph59%29.68 "HgN/A
1:20 PM57 °FSunny.12 mph59%29.68 "Hg10 mi
12:50 PM57 °FPartly sunny.10 mph63%29.68 "HgN/A
12:20 PM55 °FPartly sunny.9 mph67%29.68 "HgN/A
11:50 AM55 °FScattered clouds.8 mph63%29.68 "HgN/A
11:20 AM55 °FScattered clouds.10 mph63%29.68 "HgN/A
10:50 AM55 °FScattered clouds.10 mph67%29.68 "HgN/A
10:20 AM54 °FScattered clouds.8 mph72%29.68 "HgN/A
9:50 AM54 °FScattered clouds.9 mph67%29.71 "HgN/A
9:20 AM55 °FSunny.12 mph63%29.71 "Hg10 mi
8:50 AM52 °FSunny.8 mph72%29.71 "Hg10 mi
8:20 AM50 °FSunny.5 mph76%29.71 "Hg10 mi
7:50 AM50 °FSunny.5 mph76%29.71 "Hg10 mi
7:20 AM46 °FSunny.6 mph82%29.71 "Hg10 mi
6:50 AM46 °FClear.6 mph87%29.71 "Hg10 mi
6:20 AM45 °FClear.6 mph87%29.71 "Hg10 mi
5:50 AM45 °FPassing clouds.3 mph87%29.71 "HgN/A
5:20 AM45 °FClear.6 mph87%29.71 "Hg10 mi
4:50 AM46 °FClear.1 mph82%29.74 "Hg10 mi
4:20 AM45 °FPassing clouds.3 mph81%29.74 "HgN/A
11:20 PM
Apr 20
52 °FClear.6 mph62%29.80 "Hg10 mi
10:50 PM52 °FClear.6 mph62%29.77 "Hg10 mi
10:20 PM54 °FClear.7 mph58%29.77 "Hg10 mi
9:50 PM55 °FClear.9 mph55%29.77 "Hg10 mi
9:20 PM57 °FSunny.8 mph51%29.77 "Hg10 mi
8:50 PM59 °FSunny.13 mph51%29.77 "Hg10 mi
8:20 PM61 °FSunny.12 mph48%29.77 "Hg10 mi
7:50 PM63 °FSunny.13 mph45%29.74 "Hg10 mi
7:20 PM63 °FSunny.14 mph45%29.74 "Hg10 mi
6:50 PM63 °FSunny.17 mph42%29.74 "Hg10 mi
6:20 PM64 °FSunny.16 mph43%29.74 "Hg10 mi
Weather by CustomWeather, © 2014

See weather overview